"startDT [UTC]","vpos","CH4 [ppm]","stdev(CH4) [ppm]","CO2 [ppm]","stdev(CO2) [ppm]","H2O [ppm]","stdev(H2O)","p_LGR [torr]","T_LGR [C]","mt1_LGR [us]","mt2_LGR [us]","T_ECpre [C]","T_EC1 [C]","T_EC2 [C]","p_inlet [hPa]","p_in [hPa]","p_out [hPa]","T_inlet [C]","RH_inlet [%]","dwpt_inlet [C]","T_vent [C]","RH_vent [%]","dwpt_vent [C]","flow_vent [l min-1]","flow_inlet [l min-1]","dwpt_sample [C]","T_room [C]"
2012-04-28 00:00:00,0.0,1.9086,0.0010,402.16,0.37,176.7,31.6,138.11,28.93,24.62,36.34,0.04,-272.73,-272.74,-53,558,-934,23.3,4.3,-20.2,23.1,4.5,-19.8,5.73,2.34,-24.8,27.7
2012-04-28 00:01:00,0.0,1.9087,0.0011,402.21,0.32,181.9,46.6,138.11,28.93,24.62,36.33,0.04,-272.74,-272.74,-53,558,-934,23.3,4.3,-20.2,23.1,4.5,-19.8,5.73,2.44,-24.8,27.7
2012-04-28 00:02:00,0.0,1.9085,0.0010,402.25,0.40,179.2,44.9,138.11,28.93,24.62,36.33,0.04,-272.74,-272.74,-52,558,-934,23.3,4.3,-20.2,23.1,4.5,-19.8,5.73,2.27,-24.8,27.5
2012-04-28 00:03:00,0.0,1.9089,0.0009,402.18,0.36,173.5,42.7,138.11,28.93,24.62,36.33,0.04,-272.74,-272.74,-53,557,-934,23.3,4.3,-20.2,23.1,4.5,-19.7,5.73,2.46,-24.8,27.5
2012-04-28 00:04:00,0.0,1.9083,0.0010,402.22,0.32,179.0,32.9,138.11,28.93,24.63,36.34,0.04,-272.74,-272.74,-52,558,-934,23.3,4.3,-20.2,23.1,4.5,-19.7,5.73,2.32,-24.8,27.5
2012-04-28 00:05:00,0.0,1.9087,0.0010,402.23,0.40,177.7,40.5,138.11,28.93,24.62,36.33,0.04,-272.74,-272.74,-53,557,-934,23.3,4.3,-20.2,23.1,4.5,-19.7,5.73,2.37,-24.8,27.6
2012-04-28 00:06:00,0.0,1.9086,0.0010,402.26,0.40,178.9,33.6,138.11,28.93,24.62,36.33,0.04,-272.73,-272.74,-53,557,-934,23.3,4.3,-20.1,23.1,4.6,-19.7,5.73,2.43,-24.8,27.5
2012-04-28 00:07:00,0.0,1.9088,0.0010,402.22,0.40,175.5,38.2,138.11,28.94,24.62,36.33,0.04,-272.74,-272.74,-53,558,-934,23.3,4.3,-20.2,23.1,4.5,-19.7,5.73,2.28,-24.8,27.6
2012-04-28 00:08:00,0.0,1.9082,0.0009,402.28,0.39,182.4,38.8,138.11,28.94,24.62,36.33,0.04,-272.73,-272.74,-53,557,-934,23.3,4.3,-20.2,23.1,4.5,-19.8,5.73,2.47,-24.8,27.7
2012-04-28 00:09:00,0.0,1.9083,0.0011,402.23,0.41,181.4,34.1,138.11,28.94,24.62,36.34,0.04,-272.74,-272.74,-53,558,-934,23.3,4.3,-20.2,23.1,4.5,-19.7,5.73,2.29,-24.8,27.8
2012-04-28 00:10:00,0.0,1.9086,0.0010,402.21,0.34,178.1,35.8,138.11,28.94,24.62,36.33,0.04,-272.74,-272.74,-53,557,-934,23.3,4.3,-20.2,23.1,4.5,-19.7,5.73,2.41,-24.8,28.1
2012-04-28 00:11:00,0.0,1.9087,0.0010,402.20,0.41,180.1,42.0,138.11,28.94,24.62,36.33,0.04,-272.74,-272.74,-53,558,-934,23.3,4.3,-20.2,23.1,4.5,-19.7,5.73,2.39,-24.8,28.0
2012-04-28 00:12:00,0.0,1.9088,0.0010,402.24,0.43,187.4,33.8,138.11,28.94,24.62,36.33,0.04,-272.74,-272.74,-53,558,-934,23.3,4.3,-20.2,23.1,4.5,-19.7,5.73,2.30,-24.8,27.8
2012-04-28 00:13:00,0.0,1.9085,0.0011,402.26,0.34,171.5,32.2,138.11,28.94,24.62,36.33,0.04,-272.73,-272.74,-53,558,-934,23.4,4.3,-20.2,23.2,4.5,-19.7,5.73,2.47,-24.8,27.8
2012-04-28 00:14:00,0.0,1.9083,0.0011,402.15,0.36,183.6,44.6,138.11,28.94,24.62,36.33,0.04,-272.73,-272.74,-53,558,-934,23.4,4.3,-20.2,23.2,4.5,-19.8,5.73,2.28,-24.7,27.8
2012-04-28 00:15:00,0.0,1.9084,0.0009,402.12,0.45,182.4,39.4,138.11,28.94,24.62,36.34,0.04,-272.74,-272.74,-53,558,-934,23.4,4.3,-20.2,23.2,4.5,-19.8,5.73,2.44,-24.7,28.0
2012-04-28 00:16:00,0.0,1.9084,0.0010,402.17,0.35,179.8,38.2,138.11,28.95,24.62,36.34,0.04,-272.74,-272.74,-53,558,-934,23.4,4.3,-20.2,23.2,4.5,-19.7,5.73,2.37,-24.8,27.8
2012-04-28 00:17:00,0.0,1.9081,0.0010,402.05,0.37,170.2,44.4,138.11,28.95,24.62,36.34,0.04,-272.74,-272.74,-53,558,-934,23.4,4.3,-20.2,23.2,4.5,-19.7,5.73,2.32,-24.8,27.8
2012-04-28 00:18:00,0.0,1.9081,0.0010,402.17,0.44,183.2,39.9,138.11,28.95,24.62,36.34,0.04,-272.74,-272.74,-53,558,-934,23.4,4.3,-20.1,23.2,4.5,-19.6,5.73,2.46,-24.8,28.0
2012-04-28 00:19:00,0.0,1.9081,0.0011,402.19,0.47,177.0,42.6,138.11,28.95,24.62,36.34,0.04,-272.74,-272.74,-53,558,-934,23.4,4.3,-20.1,23.2,4.5,-19.7,5.73,2.27,-24.8,27.9
2012-04-28 00:20:00,0.0,1.9080,0.0010,402.21,0.42,172.9,40.3,138.11,28.95,24.62,36.33,0.04,-272.74,-272.73,-53,558,-934,23.4,4.3,-20.1,23.2,4.5,-19.6,5.73,2.43,-24.7,28.0
2012-04-28 00:21:00,0.0,1.9078,0.0010,402.26,0.34,173.9,38.0,138.11,28.96,24.62,36.34,0.04,-272.74,-272.74,-53,558,-934,23.4,4.3,-20.1,23.2,4.5,-19.6,5.73,2.37,-24.8,28.1
2012-04-28 00:22:00,0.0,1.9079,0.0012,402.18,0.40,175.7,38.7,138.11,28.96,24.62,36.34,0.04,-272.74,-272.74,-53,558,-934,23.4,4.3,-20.1,23.2,4.5,-19.7,5.73,2.31,-24.7,28.0
2012-04-28 00:23:00,0.0,1.9074,0.0010,402.15,0.40,182.0,43.4,138.11,28.96,24.62,36.34,0.04,-272.74,-272.73,-53,558,-934,23.4,4.3,-20.1,23.2,4.5,-19.7,5.73,2.47,-24.8,27.9
2012-04-28 00:24:00,0.0,1.9079,0.0011,402.21,0.40,181.1,35.7,138.11,28.96,24.62,36.34,0.04,-272.74,-272.74,-53,558,-934,23.4,4.3,-20.1,23.2,4.5,-19.7,5.73,2.27,-24.8,27.8
2012-04-28 00:25:00,0.0,1.9079,0.0009,402.19,0.33,168.5,32.6,138.11,28.96,24.62,36.34,0.04,-272.74,-272.74,-53,558,-934,23.4,4.3,-20.2,23.2,4.5,-19.7,5.73,2.44,-24.8,27.8
2012-04-28 00:26:00,0.0,1.9076,0.0009,402.16,0.34,184.5,33.9,138.11,28.97,24.62,36.34,0.04,-272.74,-272.74,-53,558,-934,23.4,4.3,-20.2,23.2,4.5,-19.7,5.73,2.36,-24.8,27.9
2012-04-28 00:27:00,0.0,1.9070,0.0010,402.20,0.38,174.9,31.0,138.11,28.97,24.62,36.34,0.04,-272.74,-272.74,-53,558,-934,23.4,4.3,-20.1,23.2,4.5,-19.7,5.73,2.32,-24.8,27.9
2012-04-28 00:28:00,0.0,1.9076,0.0009,402.20,0.36,177.7,35.3,138.11,28.97,24.62,36.34,0.04,-272.74,-272.74,-53,558,-934,23.4,4.3,-20.1,23.2,4.6,-19.6,5.73,2.47,-24.8,27.9
2012-04-28 00:29:00,0.0,1.9070,0.0010,402.25,0.37,178.5,43.7,138.11,28.97,24.62,36.33,0.04,-272.73,-272.74,-53,558,-934,23.4,4.3,-20.1,23.2,4.6,-19.6,5.73,2.27,-24.8,27.8
2012-04-28 00:30:00,0.0,1.9068,0.0012,402.05,0.40,166.0,35.8,138.11,28.97,24.62,36.34,0.04,-272.74,-272.74,-53,558,-934,23.4,4.3,-20.1,23.2,4.5,-19.7,5.73,2.44,-24.8,27.9
2012-04-28 00:31:00,0.0,1.9069,0.0008,402.28,0.39,177.3,37.2,138.11,28.98,24.62,36.33,0.04,-272.74,-272.74,-53,558,-934,23.4,4.3,-20.1,23.2,4.5,-19.7,5.73,2.36,-24.8,27.9
2012-04-28 00:32:00,0.0,1.9069,0.0010,402.15,0.39,173.4,36.4,138.10,28.98,24.62,36.34,0.04,-272.74,-272.74,-53,558,-934,23.4,4.3,-20.1,23.2,4.5,-19.6,5.73,2.33,-24.8,27.8
2012-04-28 00:33:00,0.0,1.9069,0.0011,402.19,0.43,178.4,35.2,138.11,28.98,24.62,36.34,0.04,-272.73,-272.74,-53,558,-934,23.4,4.3,-20.1,23.2,4.5,-19.7,5.73,2.46,-24.8,27.9
2012-04-28 00:34:00,0.0,1.9067,0.0011,402.13,0.41,175.9,43.0,138.11,28.98,24.62,36.35,0.04,-272.74,-272.74,-53,558,-934,23.4,4.3,-20.1,23.2,4.5,-19.6,5.73,2.28,-24.8,27.9
2012-04-28 00:35:00,0.0,1.9065,0.0009,402.18,0.46,172.8,33.9,138.11,28.99,24.62,36.34,0.04,-272.74,-272.74,-53,558,-934,23.4,4.3,-20.0,23.2,4.5,-19.7,5.73,2.43,-24.8,27.9
2012-04-28 00:36:00,0.0,1.9069,0.0010,402.12,0.43,175.4,36.8,138.11,28.99,24.62,36.34,0.04,-272.74,-272.73,-53,558,-934,23.4,4.3,-20.1,23.2,4.5,-19.6,5.73,2.37,-24.8,28.1
2012-04-28 00:37:00,0.0,1.9075,0.0011,402.12,0.38,179.9,37.4,138.11,28.99,24.62,36.34,0.04,-272.74,-272.74,-53,558,-934,23.4,4.3,-20.0,23.2,4.5,-19.6,5.73,2.31,-24.8,27.9
2012-04-28 00:38:00,0.0,1.9073,0.0010,402.31,0.35,181.3,41.7,138.11,28.99,24.62,36.33,0.04,-272.74,-272.74,-53,558,-934,23.4,4.3,-20.1,23.2,4.5,-19.7,5.73,2.47,-24.8,28.0
2012-04-28 00:39:00,0.0,1.9076,0.0010,402.14,0.34,176.0,40.6,138.11,28.99,24.62,36.33,0.04,-272.74,-272.73,-53,558,-934,23.4,4.3,-20.1,23.2,4.5,-19.6,5.73,2.28,-24.8,28.0
2012-04-28 00:40:00,0.0,1.9070,0.0010,402.17,0.36,173.0,39.8,138.11,29.00,24.62,36.34,0.04,-272.74,-272.73,-53,558,-934,23.4,4.3,-20.1,23.2,4.5,-19.7,5.73,2.43,-24.8,28.0
2012-04-28 00:41:00,0.0,1.9074,0.0011,402.12,0.38,174.3,37.1,138.11,29.00,24.62,36.34,0.04,-272.74,-272.74,-53,558,-934,23.4,4.3,-20.1,23.3,4.5,-19.7,5.73,2.36,-24.8,28.2
2012-04-28 00:42:00,0.0,1.9073,0.0010,402.10,0.39,185.5,30.8,138.11,29.00,24.62,36.34,0.04,-272.74,-272.74,-54,558,-934,23.4,4.3,-20.1,23.2,4.5,-19.7,5.73,2.32,-24.8,28.3
2012-04-28 00:43:00,0.0,1.9065,0.0009,402.10,0.43,184.3,36.8,138.10,29.00,24.62,36.34,0.04,-272.73,-272.74,-53,558,-934,23.5,4.3,-20.1,23.3,4.5,-19.7,5.73,2.46,-24.8,28.2
2012-04-28 00:44:00,0.0,1.9067,0.0009,401.96,0.46,186.0,39.0,138.11,29.00,24.62,36.35,0.04,-272.73,-272.74,-53,558,-934,23.5,4.3,-20.1,23.3,4.5,-19.7,5.73,2.27,-24.8,28.2
2012-04-28 00:45:00,0.0,1.9069,0.0010,402.15,0.32,175.6,46.5,138.11,29.00,24.62,36.34,0.04,-272.74,-272.74,-53,559,-934,23.5,4.3,-20.1,23.3,4.5,-19.7,5.73,2.43,-24.8,28.2
2012-04-28 00:46:00,0.0,1.9070,0.0012,402.08,0.41,180.2,33.6,138.11,29.01,24.62,36.34,0.04,-272.74,-272.74,-53,558,-934,23.5,4.3,-20.1,23.3,4.5,-19.7,5.73,2.36,-24.8,28.2
2012-04-28 00:47:00,0.0,1.9068,0.0012,402.14,0.46,182.2,31.7,138.11,29.01,24.62,36.34,0.04,-272.73,-272.73,-53,558,-934,23.5,4.3,-20.1,23.3,4.5,-19.7,5.73,2.32,-24.8,28.3
2012-04-28 00:48:00,0.0,1.9070,0.0009,402.19,0.37,183.1,33.8,138.11,29.01,24.62,36.34,0.04,-272.74,-272.74,-53,559,-934,23.5,4.3,-20.1,23.3,4.5,-19.7,5.73,2.46,-24.8,28.1
2012-04-28 00:49:00,0.0,1.9066,0.0011,402.17,0.36,164.5,39.4,138.11,29.01,24.62,36.34,0.04,-272.74,-272.74,-53,558,-934,23.5,4.3,-20.1,23.3,4.5,-19.6,5.73,2.27,-24.8,28.2
2012-04-28 00:50:00,0.0,1.9067,0.0010,402.11,0.43,175.1,37.8,138.11,29.02,24.62,36.35,0.04,-272.74,-272.73,-53,559,-934,23.5,4.3,-20.1,23.3,4.5,-19.7,5.73,2.45,-24.8,28.1
2012-04-28 00:51:00,0.0,1.9074,0.0010,402.13,0.38,176.3,38.6,138.10,29.02,24.62,36.35,0.04,-272.74,-272.74,-53,559,-934,23.5,4.3,-20.0,23.3,4.5,-19.6,5.73,2.34,-24.8,28.2
2012-04-28 00:52:00,0.0,1.9063,0.0010,402.12,0.40,180.1,39.6,138.11,29.02,24.63,36.35,0.04,-272.74,-272.74,-53,559,-934,23.5,4.3,-20.1,23.3,4.5,-19.7,5.73,2.33,-24.8,28.2
2012-04-28 00:53:00,0.0,1.9068,0.0009,402.13,0.47,182.2,33.7,138.10,29.02,24.62,36.35,0.04,-272.74,-272.74,-53,558,-934,23.5,4.3,-20.1,23.3,4.5,-19.7,5.73,2.45,-24.8,28.1
2012-04-28 00:54:00,0.0,1.9068,0.0010,402.15,0.39,178.5,39.6,138.11,29.03,24.62,36.34,0.04,-272.74,-272.74,-53,559,-934,23.5,4.3,-20.1,23.3,4.5,-19.7,5.73,2.27,-24.8,28.0
2012-04-28 00:55:00,0.0,1.9065,0.0011,402.17,0.37,176.0,35.5,138.10,29.03,24.63,36.34,0.04,-272.74,-272.74,-54,559,-934,23.5,4.3,-20.2,23.3,4.5,-19.8,5.73,2.47,-24.8,28.0
2012-04-28 00:56:00,0.0,1.9067,0.0009,402.14,0.33,174.4,38.2,138.10,29.03,24.62,36.35,0.04,-272.73,-272.74,-53,558,-934,23.5,4.3,-20.1,23.3,4.5,-19.7,5.73,2.31,-24.8,28.0
2012-04-28 00:57:00,0.0,1.9066,0.0011,402.09,0.45,186.7,39.9,138.11,29.03,24.62,36.35,0.04,-272.73,-272.73,-54,559,-934,23.5,4.3,-20.1,23.3,4.5,-19.7,5.73,2.37,-24.8,28.1
2012-04-28 00:58:00,0.0,1.9060,0.0009,402.07,0.39,191.7,39.5,138.10,29.03,24.62,36.35,0.04,-272.74,-272.74,-53,559,-934,23.5,4.3,-20.2,23.3,4.5,-19.8,5.73,2.43,-24.8,28.1
2012-04-28 00:59:00,0.0,1.9061,0.0010,402.12,0.34,181.8,41.6,138.10,29.03,24.62,36.34,0.04,-272.74,-272.74,-53,559,-935,23.5,4.2,-20.2,23.3,4.4,-19.8,5.73,2.27,-24.8,28.1
2012-04-28 01:00:00,0.0,1.9057,0.0009,402.11,0.37,186.7,32.4,138.10,29.03,24.62,36.35,0.04,-272.74,-272.74,-53,559,-934,23.5,4.2,-20.2,23.3,4.5,-19.7,5.73,2.46,-24.8,28.1
2012-04-28 01:01:00,0.0,1.9059,0.0012,401.97,0.46,182.1,34.9,138.10,29.04,24.62,36.36,0.04,-272.74,-272.74,-53,559,-934,23.5,4.2,-20.2,23.3,4.5,-19.8,5.73,2.31,-24.8,28.2
2012-04-28 01:02:00,0.0,1.9060,0.0010,402.11,0.40,178.8,37.5,138.11,29.04,24.62,36.35,0.04,-272.74,-272.74,-53,559,-934,23.5,4.2,-20.3,23.3,4.4,-19.8,5.73,2.37,-24.7,28.2
2012-04-28 01:03:00,0.0,1.9064,0.0010,402.07,0.44,177.3,35.0,138.10,29.04,24.62,36.35,0.04,-272.74,-272.74,-53,559,-934,23.5,4.2,-20.2,23.3,4.4,-19.8,5.73,2.43,-24.8,28.3
2012-04-28 01:04:00,0.0,1.9062,0.0009,402.13,0.40,176.6,31.6,138.11,29.05,24.63,36.35,0.04,-272.74,-272.74,-54,559,-934,23.5,4.2,-20.2,23.3,4.5,-19.8,5.73,2.28,-24.7,28.4
2012-04-28 01:05:00,0.0,1.9068,0.0011,402.13,0.39,177.2,36.2,138.10,29.05,24.62,36.35,0.04,-272.74,-272.74,-53,559,-934,23.6,4.2,-20.2,23.4,4.4,-19.8,5.73,2.47,-24.7,28.3
2012-04-28 01:06:00,0.0,1.9064,0.0009,402.07,0.39,179.9,33.1,138.10,29.05,24.62,36.35,0.04,-272.73,-272.73,-54,559,-934,23.5,4.3,-20.2,23.4,4.5,-19.7,5.73,2.31,-24.8,28.3
2012-04-28 01:07:00,0.0,1.9061,0.0010,402.06,0.42,183.8,37.9,138.10,29.06,24.62,36.35,0.04,-272.74,-272.74,-53,559,-934,23.6,4.3,-20.2,23.4,4.5,-19.7,5.73,2.37,-24.7,28.3
2012-04-28 01:08:00,0.0,1.9060,0.0009,402.20,0.44,184.7,42.3,138.10,29.06,24.62,36.35,0.04,-272.74,-272.74,-54,559,-934,23.6,4.2,-20.2,23.4,4.4,-19.8,5.73,2.42,-24.7,28.3
2012-04-28 01:09:00,0.0,1.9060,0.0009,402.12,0.43,176.5,39.1,138.10,29.06,24.62,36.35,0.04,-272.74,-272.74,-53,559,-934,23.6,4.2,-20.2,23.4,4.4,-19.8,5.73,2.28,-24.7,28.3
2012-04-28 01:10:00,0.0,1.9060,0.0009,402.15,0.42,177.4,41.4,138.10,29.07,24.62,36.35,0.04,-272.74,-272.73,-54,560,-935,23.6,4.2,-20.3,23.4,4.4,-19.9,5.73,2.47,-24.7,28.3
2012-04-28 01:11:00,0.0,1.9064,0.0010,402.07,0.43,183.3,34.4,138.10,29.07,24.62,36.35,0.04,-272.74,-272.74,-53,559,-934,23.6,4.2,-20.3,23.4,4.4,-19.8,5.73,2.31,-24.8,28.0
2012-04-28 01:12:00,0.0,1.9062,0.0011,402.11,0.43,188.5,37.8,138.10,29.07,24.62,36.35,0.04,-272.74,-272.74,-53,559,-934,23.6,4.2,-20.2,23.4,4.4,-19.8,5.73,2.37,-24.7,28.0
2012-04-28 01:13:00,0.0,1.9059,0.0008,402.08,0.37,187.8,38.4,138.10,29.07,24.62,36.35,0.04,-272.74,-272.74,-53,559,-934,23.6,4.2,-20.3,23.4,4.4,-19.8,5.73,2.42,-24.8,27.9
2012-04-28 01:14:00,0.0,1.9061,0.0011,402.06,0.42,177.8,34.4,138.10,29.07,24.62,36.35,0.04,-272.73,-272.74,-53,559,-935,23.6,4.2,-20.4,23.4,4.4,-19.9,5.73,2.28,-24.8,28.1
2012-04-28 01:15:00,0.0,1.9060,0.0010,402.15,0.38,181.4,31.9,138.10,29.08,24.62,36.35,0.04,-272.74,-272.74,-54,559,-935,23.6,4.2,-20.3,23.4,4.4,-19.9,5.73,2.47,-24.8,28.3
2012-04-28 01:16:00,0.0,1.9059,0.0009,402.01,0.41,183.4,33.8,138.10,29.08,24.62,36.35,0.04,-272.74,-272.74,-53,560,-934,23.6,4.2,-20.3,23.4,4.4,-19.9,5.73,2.30,-24.8,28.2
2012-04-28 01:17:00,0.0,1.9060,0.0009,402.13,0.45,178.6,36.7,138.10,29.08,24.62,36.36,0.04,-272.74,-272.73,-54,559,-934,23.6,4.2,-20.4,23.4,4.4,-19.9,5.73,2.38,-24.8,28.4
2012-04-28 01:18:00,0.0,1.9062,0.0009,402.04,0.40,188.7,41.1,138.10,29.08,24.62,36.35,0.04,-272.74,-272.74,-53,559,-935,23.6,4.2,-20.4,23.4,4.4,-20.0,5.73,2.41,-24.8,28.3
2012-04-28 01:19:00,0.0,1.9058,0.0009,402.09,0.37,190.6,31.8,138.10,29.09,24.62,36.35,0.04,-272.74,-272.74,-54,560,-934,23.6,4.2,-20.4,23.4,4.4,-19.9,5.73,2.28,-24.8,28.2
2012-04-28 01:20:00,0.0,1.9056,0.0009,402.15,0.47,193.0,33.3,138.10,29.09,24.62,36.35,0.04,-272.74,-272.74,-53,560,-934,23.6,4.2,-20.4,23.4,4.4,-20.0,5.73,2.47,-24.8,28.3
2012-04-28 01:21:00,0.0,1.9053,0.0010,402.07,0.41,177.7,34.1,138.10,29.09,24.62,36.35,0.04,-272.73,-272.74,-54,560,-934,23.6,4.2,-20.4,23.4,4.3,-20.0,5.73,2.30,-24.8,28.3
2012-04-28 01:22:00,0.0,1.9054,0.0011,402.03,0.47,178.5,38.9,138.10,29.10,24.62,36.36,0.04,-272.74,-272.74,-53,559,-934,23.6,4.1,-20.5,23.4,4.3,-20.1,5.73,2.38,-24.8,28.3
2012-04-28 01:23:00,0.0,1.9057,0.0009,402.00,0.43,179.6,36.9,138.10,29.10,24.62,36.35,0.04,-272.73,-272.74,-53,560,-934,23.6,4.2,-20.4,23.4,4.4,-20.0,5.73,2.41,-24.8,28.4
2012-04-28 01:24:00,0.0,1.9049,0.0010,402.05,0.43,177.8,36.7,138.10,29.10,24.62,36.35,0.04,-272.74,-272.74,-53,559,-934,23.6,4.2,-20.4,23.4,4.4,-20.0,5.73,2.27,-24.8,28.4
2012-04-28 01:25:00,0.0,1.9049,0.0010,402.13,0.49,181.2,32.5,138.10,29.10,24.62,36.35,0.04,-272.74,-272.74,-53,560,-934,23.6,4.2,-20.4,23.4,4.4,-20.0,5.73,2.47,-24.8,28.4
2012-04-28 01:26:00,0.0,1.9049,0.0010,402.02,0.46,182.5,33.7,138.10,29.11,24.62,36.35,0.04,-272.74,-272.74,-53,559,-934,23.6,4.2,-20.2,23.4,4.4,-19.8,5.73,2.29,-24.8,28.4
2012-04-28 01:27:00,0.0,1.9052,0.0010,401.98,0.45,185.4,40.2,138.10,29.11,24.62,36.36,0.04,-272.74,-272.74,-53,560,-934,23.6,4.2,-20.2,23.5,4.4,-19.8,5.73,2.38,-24.7,28.4
2012-04-28 01:28:00,0.0,1.9054,0.0010,402.06,0.35,171.0,41.3,138.10,29.12,24.62,36.36,0.04,-272.73,-272.74,-54,560,-934,23.6,4.2,-20.2,23.5,4.4,-19.8,5.73,2.42,-24.7,28.4
2012-04-28 01:29:00,0.0,1.9053,0.0010,402.07,0.47,182.1,33.8,138.10,29.12,24.62,36.35,0.04,-272.74,-272.74,-53,560,-934,23.6,4.2,-20.3,23.5,4.4,-19.9,5.73,2.27,-24.7,28.4
2012-04-28 01:30:00,0.0,1.9051,0.0010,402.06,0.38,177.7,36.6,138.10,29.12,24.62,36.35,0.04,-272.74,-272.74,-54,560,-935,23.6,4.2,-20.3,23.5,4.4,-19.9,5.73,2.47,-24.7,28.4
2012-04-28 01:31:00,0.0,1.9055,0.0010,402.07,0.42,180.8,32.3,138.10,29.12,24.62,36.36,0.04,-272.74,-272.74,-53,560,-934,23.6,4.2,-20.3,23.5,4.4,-19.9,5.73,2.30,-24.8,28.3
2012-04-28 01:32:00,0.0,1.9057,0.0009,401.97,0.43,180.1,36.1,138.10,29.13,24.62,36.36,0.04,-272.74,-272.74,-54,560,-935,23.6,4.2,-20.2,23.5,4.4,-19.8,5.73,2.37,-24.8,28.3
2012-04-28 01:33:00,0.0,1.9056,0.0011,402.04,0.45,179.1,36.9,138.10,29.13,24.62,36.36,0.04,-272.74,-272.74,-53,560,-934,23.6,4.2,-20.2,23.5,4.4,-19.7,5.73,2.43,-24.7,28.4
2012-04-28 01:34:00,0.0,1.9059,0.0008,402.10,0.36,177.0,35.5,138.10,29.14,24.62,36.36,0.04,-272.74,-272.73,-53,560,-934,23.6,4.2,-20.2,23.5,4.4,-19.7,5.73,2.27,-24.8,28.3
2012-04-28 01:35:00,0.0,1.9055,0.0010,402.00,0.48,179.1,30.7,138.10,29.14,24.63,36.36,0.04,-272.74,-272.74,-53,560,-934,23.7,4.2,-20.2,23.5,4.4,-19.7,5.73,2.46,-24.8,28.3
2012-04-28 01:36:00,0.0,1.9055,0.0010,402.08,0.39,186.3,35.7,138.10,29.14,24.62,36.35,0.04,-272.74,-272.74,-53,560,-934,23.6,4.2,-20.2,23.5,4.4,-19.7,5.73,2.32,-24.8,28.3
2012-04-28 01:37:00,0.0,1.9060,0.0009,402.03,0.41,183.1,40.4,138.10,29.14,24.62,36.35,0.04,-272.73,-272.74,-54,560,-935,23.6,4.2,-20.2,23.5,4.4,-19.7,5.73,2.35,-24.8,28.3
2012-04-28 01:38:00,0.0,1.9059,0.0009,402.01,0.44,186.8,31.4,138.10,29.14,24.62,36.36,0.04,-272.74,-272.74,-53,560,-934,23.6,4.2,-20.1,23.5,4.5,-19.7,5.73,2.43,-24.7,28.2
2012-04-28 01:39:00,0.0,1.9056,0.0010,401.94,0.45,193.6,37.5,138.10,29.15,24.62,36.36,0.04,-272.74,-272.74,-54,560,-934,23.7,4.2,-20.1,23.5,4.5,-19.7,5.73,2.27,-24.7,28.3
2012-04-28 01:40:00,0.0,1.9059,0.0010,402.10,0.45,181.2,38.8,138.10,29.15,24.62,36.36,0.04,-272.74,-272.73,-53,560,-934,23.7,4.2,-20.1,23.5,4.4,-19.7,5.73,2.45,-24.8,28.3
2012-04-28 01:41:00,0.0,1.9066,0.0010,402.05,0.38,182.7,37.7,138.10,29.15,24.62,36.35,0.04,-272.73,-272.74,-54,560,-935,23.7,4.2,-20.1,23.5,4.4,-19.7,5.73,2.33,-24.8,28.4
2012-04-28 01:42:00,0.0,1.9073,0.0011,402.00,0.42,192.7,39.2,138.10,29.15,24.62,36.36,0.04,-272.74,-272.74,-53,560,-934,23.7,4.3,-20.1,23.5,4.5,-19.6,5.73,2.33,-24.7,28.2
2012-04-28 01:43:00,0.0,1.9072,0.0009,401.92,0.43,180.9,40.0,138.10,29.16,24.63,36.36,0.04,-272.74,-272.74,-54,560,-934,23.7,4.3,-19.9,23.5,4.5,-19.5,5.73,2.45,-24.7,28.2
2012-04-28 01:44:00,0.0,1.9069,0.0009,402.02,0.34,187.9,36.8,138.10,29.16,24.62,36.36,0.04,-272.74,-272.74,-53,560,-934,23.7,4.2,-20.1,23.5,4.5,-19.7,5.73,2.27,-24.7,28.3
2012-04-28 01:45:00,0.0,1.9071,0.0011,402.04,0.44,180.6,34.3,138.10,29.16,24.63,36.36,0.04,-272.74,-272.74,-53,560,-935,23.7,4.2,-20.3,23.5,4.4,-19.9,5.73,2.44,-24.7,28.2
2012-04-28 01:46:00,0.0,1.9078,0.0012,401.99,0.40,180.2,34.6,138.10,29.16,24.62,36.36,0.04,-272.74,-272.74,-53,560,-934,23.7,4.2,-20.2,23.5,4.4,-19.9,5.73,2.35,-24.8,28.3
2012-04-28 01:47:00,0.0,1.9076,0.0010,401.98,0.42,181.3,33.2,138.10,29.17,24.63,36.36,0.04,-272.74,-272.73,-53,560,-935,23.7,4.2,-20.2,23.5,4.4,-19.8,5.73,2.33,-24.7,28.4
2012-04-28 01:48:00,0.0,1.9082,0.0012,402.02,0.41,180.5,37.1,138.10,29.17,24.62,36.36,0.04,-272.74,-272.74,-54,560,-935,23.7,4.2,-20.2,23.5,4.4,-19.8,5.73,2.45,-24.7,28.5
2012-04-28 01:49:00,0.0,1.9075,0.0010,402.06,0.45,179.3,32.2,138.10,29.18,24.62,36.36,0.04,-272.74,-272.74,-53,560,-934,23.7,4.2,-20.1,23.5,4.4,-19.7,5.73,2.27,-24.7,28.4
2012-04-28 01:50:00,0.0,1.9077,0.0009,402.07,0.47,176.3,35.8,138.10,29.18,24.62,36.36,0.04,-272.74,-272.74,-54,560,-935,23.7,4.2,-20.2,23.5,4.4,-19.8,5.73,2.44,-24.7,28.4
2012-04-28 01:51:00,0.0,1.9085,0.0011,402.21,0.42,186.1,32.4,138.10,29.18,24.62,36.35,0.04,-272.74,-272.74,-53,560,-935,23.7,4.2,-20.2,23.5,4.4,-19.8,5.73,2.34,-24.7,28.5
2012-04-28 01:52:00,0.0,1.9086,0.0011,402.16,0.40,184.6,38.8,138.10,29.19,24.62,36.36,0.04,-272.74,-272.74,-54,560,-935,23.7,4.2,-20.2,23.5,4.4,-19.8,5.73,2.32,-24.7,28.5
2012-04-28 01:53:00,0.0,1.9085,0.0009,402.20,0.46,181.7,32.2,138.10,29.19,24.62,36.36,0.04,-272.74,-272.74,-53,560,-934,23.7,4.2,-20.3,23.5,4.4,-19.9,5.73,2.46,-24.7,28.4
2012-04-28 01:54:00,0.0,1.9081,0.0010,402.13,0.34,192.0,41.6,138.10,29.19,24.62,36.36,0.04,-272.74,-272.74,-54,560,-935,23.7,4.1,-20.3,23.5,4.4,-19.9,5.73,2.27,-24.7,28.3
2012-04-28 01:55:00,0.0,1.9078,0.0011,401.97,0.40,183.0,32.4,138.10,29.20,24.63,36.37,0.04,-272.74,-272.74,-53,560,-934,23.7,4.1,-20.4,23.5,4.4,-19.9,5.73,2.42,-24.7,28.4
2012-04-28 01:56:00,0.0,1.9080,0.0010,402.09,0.44,182.5,36.7,138.10,29.20,24.63,36.36,0.04,-272.74,-272.74,-53,560,-935,23.7,4.1,-20.4,23.5,4.3,-20.0,5.73,2.37,-24.7,28.5
2012-04-28 01:57:00,0.0,1.9082,0.0011,402.03,0.46,181.8,34.4,138.10,29.20,24.62,36.36,0.04,-272.74,-272.74,-53,560,-934,23.7,4.1,-20.3,23.5,4.4,-19.9,5.73,2.30,-24.7,28.4
2012-04-28 01:58:00,0.0,1.9081,0.0009,402.03,0.48,177.8,32.5,138.10,29.21,24.62,36.36,0.04,-272.74,-272.74,-53,560,-935,23.7,4.2,-20.2,23.6,4.4,-19.8,5.73,2.46,-24.7,28.5
2012-04-28 01:59:00,0.0,1.9076,0.0009,402.13,0.52,186.8,39.1,138.10,29.21,24.62,36.36,0.04,-272.74,-272.74,-54,560,-934,23.7,4.2,-20.2,23.6,4.4,-19.8,5.73,2.28,-24.7,28.4
2012-04-28 02:00:00,1.0,1.8883,0.0136,386.59,10.97,197.7,34.2,138.10,29.21,24.62,36.37,0.04,-272.74,-272.74,-53,523,-935,23.7,4.1,-20.3,23.6,4.4,-19.9,5.73,2.35,-24.7,28.3
2012-04-28 02:01:00,1.0,1.8725,0.0010,373.90,0.37,202.2,33.2,138.10,29.22,24.62,36.38,0.04,-272.73,-272.74,-54,522,-935,23.7,4.1,-20.3,23.6,4.3,-19.9,5.73,2.40,-24.7,28.4
2012-04-28 02:02:00,1.0,1.8725,0.0009,374.08,0.41,196.1,30.3,138.10,29.22,24.62,36.37,0.04,-272.74,-272.74,-53,522,-934,23.8,4.1,-20.3,23.6,4.4,-19.9,5.73,2.27,-24.7,28.4
2012-04-28 02:03:00,1.0,1.8724,0.0008,373.79,0.41,191.5,35.6,138.10,29.22,24.62,36.37,0.04,-272.74,-272.74,-54,522,-935,23.8,4.1,-20.4,23.6,4.3,-19.9,5.73,2.46,-24.7,28.4
2012-04-28 02:04:00,1.0,1.8721,0.0009,373.96,0.42,197.1,34.6,138.10,29.23,24.63,36.37,0.04,-272.74,-272.74,-53,522,-935,23.8,4.1,-20.4,23.6,4.3,-19.9,5.73,2.30,-24.7,28.2
2012-04-28 02:05:00,0.0,1.8910,0.0135,389.30,10.91,187.1,32.7,138.10,29.23,24.62,36.37,0.04,-272.74,-272.74,-53,559,-935,23.8,4.1,-20.3,23.6,4.3,-19.9,5.73,2.32,-24.7,28.1
2012-04-28 02:06:00,0.0,1.9068,0.0011,401.99,0.47,176.8,33.1,138.10,29.23,24.62,36.37,0.04,-272.74,-272.74,-53,559,-934,23.8,4.1,-20.3,23.6,4.3,-19.9,5.73,2.43,-24.7,28.4
2012-04-28 02:07:00,0.0,1.9066,0.0010,402.01,0.40,183.6,32.0,138.10,29.24,24.62,36.36,0.04,-272.74,-272.74,-53,560,-935,23.8,4.1,-20.4,23.6,4.3,-19.9,5.73,2.27,-24.7,28.5
2012-04-28 02:08:00,0.0,1.9066,0.0010,402.08,0.44,174.7,32.0,138.10,29.24,24.63,36.36,0.04,-272.73,-272.74,-54,560,-935,23.8,4.1,-20.4,23.6,4.3,-19.9,5.73,2.45,-24.7,28.5
2012-04-28 02:09:00,0.0,1.9068,0.0009,402.14,0.45,179.9,35.0,138.10,29.24,24.62,36.36,0.04,-272.74,-272.74,-53,560,-935,23.8,4.2,-20.3,23.6,4.3,-19.9,5.73,2.35,-24.7,28.4
2012-04-28 02:10:00,0.0,1.9071,0.0009,402.01,0.46,175.5,35.7,138.10,29.25,24.62,36.37,0.04,-272.74,-272.74,-54,560,-935,23.8,4.1,-20.3,23.6,4.3,-19.9,5.73,2.32,-24.7,28.5
2012-04-28 02:11:00,0.0,1.9069,0.0010,402.04,0.45,184.2,34.9,138.10,29.25,24.62,36.37,0.04,-272.74,-272.73,-53,560,-935,23.8,4.1,-20.3,23.6,4.3,-19.9,5.73,2.46,-24.7,28.5
2012-04-28 02:12:00,0.0,1.9073,0.0010,402.09,0.41,177.1,36.6,138.10,29.25,24.62,36.37,0.04,-272.74,-272.74,-54,560,-935,23.8,4.1,-20.4,23.6,4.3,-19.9,5.73,2.28,-24.7,28.4
2012-04-28 02:13:00,0.0,1.9068,0.0010,402.06,0.49,181.8,36.2,138.10,29.26,24.62,36.37,0.04,-272.74,-272.74,-53,560,-935,23.8,4.1,-20.3,23.6,4.4,-19.8,5.73,2.40,-24.7,28.5
2012-04-28 02:14:00,0.0,1.9069,0.0012,402.16,0.50,178.5,32.9,138.10,29.26,24.62,36.37,0.04,-272.74,-272.74,-53,560,-934,23.8,4.2,-20.2,23.6,4.4,-19.8,5.73,2.41,-24.7,28.4
2012-04-28 02:15:00,0.0,1.9058,0.0010,402.16,0.47,183.1,34.6,138.10,29.27,24.63,36.36,0.04,-272.74,-272.74,-54,560,-935,23.8,4.2,-20.2,23.6,4.4,-19.7,5.73,2.28,-24.8,28.5
2012-04-28 02:16:00,0.0,1.9066,0.0008,402.17,0.41,182.6,39.9,138.10,29.27,24.62,36.36,0.04,-272.74,-272.73,-53,560,-935,23.8,4.2,-20.3,23.6,4.4,-19.8,5.73,2.45,-24.8,28.5